Showing default

ICEYE-X44, 62707

Orbit data source: Space-Track

ICEYE-X44, 62707 is an Emirian payload satellite in SSO that was launched on Tue, 14 Jan 2025 UTC via an FALCON 9 launch vehicle from the Air Force Western Test Range (AFWTR). Payload-class satellites include a variety of spacecraft equipped with specific instruments for various scientific and technological missions. These include communications satellites like Starlink; space stations such as the ISS; scientific satellites like the Hubble; Earth observation satellites from companies like Planet Labs, Umbra, and HawkEye 360; GPS; miniature CubeSats for education and research; and military/defense satellites.

Loading next visibility...
Identifier
62707, 2025-009DC
Orbit
SSO
Country
Flag of AEAE / UAE
Related business
None
Manufacturer
ICEYE
Mission
Operational Commercial Radar Imaging
Bus & Motor
ICEYE, Unknown motor
Mass
80 kg wet, 80 kg dry
Launch date (UTC)
2025-01-14 (2 years ago)
Launch vehicle
FALCON 9
Launch site
Air Force Western Test Range (AFWTR)
Object type
Payload
Rocket body
Debris
Shape & HBR
Box + 1 Pan, 2.4 m
Radar Cross Section
0.776 m², Medium (>0.1 m² and < 1m²)

Expand to show TLE details & history
Last TLE update: 9 hours ago

TLE from 9 hours ago
0 ICEYE-X44
1 62707U 25009DC  26238.10645747  .00003206  00000-0  28833-3 0  9991
2 62707  97.7029 316.1275 0000893 131.3918 228.7380 14.96350987110395
Epoch: 2026-08-26T02:33Z
TLE epoch observation values (Epoch: 2026-08-26T02:33:17.925Z)
Latitude
-0.00005°
Longitude
-56.5614°
Altitude
581.642 km
Speed
7.569 km/s
True Right ascension
21h 04m 30s
True Declination
0° 00' 00"
Sunlit
Object was in full shadow at epoch
Visualization orbit readout
Latitude
Unknown
Longitude
Unknown
Altitude
Unknown
Speed
Unknown
Apparent Right ascension
Unknown
Apparent Declination
Unknown
Sunlit
N/A
Visualization observer readout
Local Sidereal Time
02:58:09
Azimuth
Unknown
Elevation
Unknown
Doppler factor
Unknown
Orbital elements
Apogee altitude
575.814 km
Perigee altitude
574.572 km
Semi-major axis
6,953.33 km
Eccentricity
0.00009
Inclination
97.7029°
RAAN
316.1275°
Arg. of periapsis
131.3918°
True anomaly
228.73031°
Mean anomaly
228.738°
Eccentric anomaly
228.73415°
Mean motion
3.74329 °/min
Orbital period
96.17 mins
BSTAR
0.00028833
Loading maneuver chart data...
Computing Atmospheric mass density...
Loading historical data...
Loading historical data...
Loading historical data...
Loading historical data...
Loading historical data...
Loading historical data...
Loading historical data...

Documentation

Showing up to 5 results
|